This demonstration page uses our WeatherBlox Daily Observations layout. Learn more.

Left ArrowRight Arrow

Hourly Observations for December 31, 2021

Temp ( °F °C ) Dew Point ( °F °C ) Humidity (%) Winds ( mph kmh ) Pressure ( in mb ) Visibility ( mi km ) Precip ( " mm )
12:56 am 00:56 Clear 26 -3.3 20 -6.8 77 77 SE 6 9 29.67 1005 10 16 0.00 0.00
1:56 am 01:56 Clear 26 -3.1 21 -6.1 80 80 ESE 5 7 29.66 1004 10 16 0.00 0.00
2:56 am 02:56 Clear 27 -2.8 23 -5.1 84 84 Calm 29.65 1004 10 16 0.00 0.00
3:56 am 03:56 Mostly Cloudy 27 -2.8 23 -4.8 86 86 ESE 5 7 29.62 1003 9 14 0.00 0.00
4:56 am 04:56 Clear with Mist and Fog 28 -2.1 26 -3.5 90 90 E 5 7 29.60 1002 8 13 0.00 0.00
5:56 am 05:56 Partly Cloudy with Mist and Fog 28 -2.1 27 -2.9 94 94 E 6 9 29.57 1002 6 10 0.00 0.00
6:54 am 06:54 Cloudy with Mist and Fog 28 -2 28 -2 100 100 ENE 5 7 29.60 1003 1 2 0.00 0.00
6:56 am 06:56 Cloudy with Mist and Fog 29 -1.6 29 -1.9 98 98 NE 3 6 29.60 1003 1 2 0.00 0.00
7:11 am 07:11 Cloudy with Mist and Fog 28 -2 28 -2 100 100 ENE 5 7 29.60 1003 1 1 0.00 0.00
7:20 am 07:20 Mostly Cloudy with Freezing Fog 28 -2 28 -2 100 100 ENE 5 7 29.60 1003 1 1 0.00 0.00
7:50 am 07:50 Mostly Cloudy with Freezing Fog 28 -2 28 -2 100 100 NNE 6 9 29.61 1003 3 5 0.00 0.00
7:54 am 07:54 Mostly Cloudy with Freezing Fog 28 -2 28 -2 100 100 NE 8 13 29.61 1003 3 5 0.00 0.00
7:56 am 07:56 Mostly Cloudy with Freezing Fog 29 -1.6 29 -1.7 99 99 NE 7 11 29.61 1003 3 5 0.00 0.00
8:11 am 08:11 Cloudy with Freezing Fog 28 -2 28 -2 100 100 NNE 8 13 29.61 1003 1 1 0.00 0.00
8:26 am 08:26 Cloudy with Mist and Fog 30 -1 28 -2 93 93 N 7 11 29.62 1003 5 8 0.00 0.00
8:34 am 08:34 Cloudy with Mist and Fog 30 -1 30 -1 100 100 N 6 9 29.64 1004 7 11 0.00 0.00
8:46 am 08:46 Mostly Cloudy with Mist and Fog 30 -1 30 -1 100 100 NNE 7 11 29.62 1003 1 2 0.00 0.00
8:56 am 08:56 Mostly Cloudy with Mist and Fog 29 -1.4 29 -1.5 99 99 NNE 6 9 29.63 1004 1 2 0.00 0.00
9:11 am 09:11 Partly Cloudy with Mist and Fog 30 -1 30 -1 100 100 NE 6 9 29.63 1004 2 2 0.00 0.00
9:41 am 09:41 Cloudy with Mist and Fog 30 -1 30 -1 100 100 N 6 9 29.65 1004 1 2 0.00 0.00
9:56 am 09:56 Mostly Cloudy with Mist and Fog 30 -1.1 30 -1.2 99 99 N 6 9 29.65 1004 5 8 0.00 0.00
10:11 am 10:11 Cloudy with Mist and Fog 30 -1 30 -1 100 100 N 6 9 29.66 1004 3 5 0.00 0.00
10:56 am 10:56 Mostly Cloudy with Mist and Fog 30 -1.1 30 -1.2 99 99 N 8 13 29.68 1005 3 5 0.00 0.00
11:11 am 11:11 Mostly Cloudy with Mist and Fog 30 -1 30 -1 100 100 N 9 15 29.69 1005 2 2 0.00 0.00
11:26 am 11:26 Mostly Cloudy with Mist and Fog 30 -1 30 -1 100 100 N 12 19 29.68 1005 2 3 0.00 0.00
11:41 am 11:41 Cloudy with Mist and Fog 28 -2 28 -2 100 100 N 9 15 29.69 1005 5 8 0.00 0.00
11:56 am 11:56 Cloudy with Mist and Fog 29 -1.5 29 -1.6 99 99 NNE 9 15 29.68 1005 7 11 0.00 0.00
12:11 pm 12:11 Cloudy with Mist and Fog 30 -1 30 -1 100 100 N 10 17 29.67 1005 2 3 0.00 0.00
12:26 pm 12:26 Cloudy with Mist and Fog 28 -2 28 -2 100 100 N 16 26 29.67 1005 7 11 0.00 0.00
12:41 pm 12:41 Cloudy with Mist and Fog 28 -2 28 -2 100 100 N 10 17 29.67 1005 2 4 0.00 0.00
12:56 pm 12:56 Cloudy with Mist and Fog 28 -2 28 -2.4 97 97 N 14 22 29.68 1005 2 4 0.00 0.00
1:56 pm 13:56 Mostly Cloudy with Mist and Fog 27 -3 25 -3.8 94 94 N 13 20 29.73 1007 2 3 0.00 0.00
2:41 pm 14:41 Cloudy with Mist and Fog 25 -4 23 -5 93 93 N 10 17 29.74 1007 3 5 0.00 0.00
2:56 pm 14:56 Cloudy with Mist and Fog 25 -4 23 -5.1 92 92 NNW 13 20 29.76 1008 3 4 0.00 0.00
3:56 pm 15:56 Cloudy with Mist and Fog 24 -4.6 21 -6 90 90 N 15 24 29.81 1010 3 5 0.00 0.00
4:56 pm 16:56 Cloudy with Mist and Fog 22 -5.3 20 -6.8 89 89 N 12 19 29.82 1010 5 8 0.00 0.00
5:56 pm 17:56 Cloudy 22 -5.6 18 -7.6 86 86 NNE 9 15 29.88 1012 10 16 0.00 0.00
6:56 pm 18:56 Cloudy 21 -5.9 18 -8 85 85 N 8 13 29.91 1013 7 11 0.00 0.00
7:56 pm 19:56 Cloudy 21 -6.2 14 -9.9 75 75 N 10 17 29.96 1014 10 16 0.00 0.00
8:56 pm 20:56 Cloudy 19 -7.2 13 -10.6 77 77 N 13 20 29.98 1015 10 16 0.00 0.00
9:56 pm 21:56 Cloudy 17 -8.6 9 -12.6 73 73 N 14 22 30.02 1017 10 16 0.00 0.00
10:56 pm 22:56 Cloudy 14 -10.2 6 -14.3 72 72 N 16 26 30.05 1018 10 16 0.00 0.00
11:56 pm 23:56 Mostly Clear 10 -12 3 -16.1 72 72 N 16 26 30.04 1017 10 16 0.00 0.00

Powered by AerisWeather